Lake Isabella Weather Center

Moon Phase Calendar



Lake Isabella Water Level
Online Cameras

 


      

Current Conditions in Wofford Heights
7/20/2024 10:32:00 AM

101°F
Feels Like 97
Clear
Humidity
15%
Pressure
29.94"
Wind
5.5 mph (SSE)
Dew Point
45°F
UV Index
2/10 (Low)
Visibility
6 mi

Hourly Forecast

Date & Time Sat, Jul 20
10:00 AM
Sat, Jul 20
11:00 AM
Sat, Jul 20
12:00 PM
Sat, Jul 20
1:00 PM
Sat, Jul 20
2:00 PM
Sat, Jul 20
3:00 PM
Sat, Jul 20
4:00 PM
Sat, Jul 20
5:00 PM
Sat, Jul 20
6:00 PM
Sat, Jul 20
7:00 PM
Sat, Jul 20
8:00 PM
Sat, Jul 20
9:00 PM
Sat, Jul 20
10:00 PM
Sat, Jul 20
11:00 PM
Sun, Jul 21
12:00 AM
Sun, Jul 21
1:00 AM
Sun, Jul 21
2:00 AM
Sun, Jul 21
3:00 AM
Sun, Jul 21
4:00 AM
Sun, Jul 21
5:00 AM
Sun, Jul 21
6:00 AM
Sun, Jul 21
7:00 AM
Sun, Jul 21
8:00 AM
Sun, Jul 21
9:00 AM
Sun, Jul 21
10:00 AM
Sun, Jul 21
11:00 AM
Sun, Jul 21
12:00 PM
Sun, Jul 21
1:00 PM
Sun, Jul 21
2:00 PM
Sun, Jul 21
3:00 PM
Sun, Jul 21
4:00 PM
Sun, Jul 21
5:00 PM
Sun, Jul 21
6:00 PM
Sun, Jul 21
7:00 PM
Sun, Jul 21
8:00 PM
Sun, Jul 21
9:00 PM
Sun, Jul 21
10:00 PM
Sun, Jul 21
11:00 PM
Mon, Jul 22
12:00 AM
Mon, Jul 22
1:00 AM
Mon, Jul 22
2:00 AM
Mon, Jul 22
3:00 AM
Mon, Jul 22
4:00 AM
Mon, Jul 22
5:00 AM
Mon, Jul 22
6:00 AM
Mon, Jul 22
7:00 AM
Mon, Jul 22
8:00 AM
Mon, Jul 22
9:00 AM
Condition
Clear

Clear

Clear

Clear

Clear

Clear

Clouds

Clouds

Clear

Clear

Clear

Clear

Clear

Clear

Clear

Clear

Clear

Clear

Clear

Clear

Clear

Clear

Clear

Clear

Clear

Clear

Clear

Clear

Clear

Clear

Clear

Clear

Clear

Clear

Clear

Clear

Clear

Clear

Clear

Clear

Clear

Clear

Clear

Clear

Clear

Clear

Clear

Clear
Temperature 100°F101°F101°F102°F103°F103°F103°F102°F100°F97°F88°F83°F80°F78°F77°F77°F76°F76°F76°F75°F74°F82°F88°F93°F97°F101°F103°F104°F104°F104°F104°F102°F99°F96°F86°F82°F81°F80°F79°F79°F78°F78°F77°F77°F78°F84°F91°F95°F
Feels Like 97°F97°F97°F98°F99°F99°F99°F98°F96°F93°F84°F81°F79°F77°F76°F76°F75°F75°F74°F74°F73°F80°F85°F89°F93°F97°F99°F101°F101°F101°F100°F99°F96°F93°F84°F81°F80°F80°F79°F78°F77°F77°F76°F76°F77°F82°F88°F92°F
Cloudiness 0%0%0%1%2%10%15%13%1%1%0%0%0%0%0%0%0%0%0%0%0%0%1%1%0%0%0%1%3%2%4%6%4%2%2%1%1%1%0%0%0%0%0%0%0%0%0%0%
Visibility 6 mi6 mi6 mi6 mi6 mi6 mi6 mi6 mi6 mi6 mi6 mi6 mi6 mi6 mi6 mi6 mi6 mi6 mi6 mi6 mi6 mi6 mi6 mi6 mi6 mi6 mi6 mi6 mi6 mi6 mi6 mi6 mi6 mi6 mi6 mi6 mi6 mi6 mi6 mi6 mi6 mi6 mi6 mi6 mi6 mi6 mi6 mi6 mi
Precipitation 0%0%0%0%0%0%0%0%0%0%0%0%0%0%0%0%0%0%0%0%0%0%0%0%0%0%0%0%0%0%0%0%0%0%0%0%0%0%0%0%0%0%0%0%0%0%0%0%
Humidity 16%15%14%14%13%13%14%14%15%17%23%26%28%30%31%31%32%33%33%34%35%32%23%20%18%17%16%15%15%16%16%17%18%20%27%31%32%33%34%34%35%35%36%36%35%32%24%21%
Dew Point 46°F45°F43°F44°F43°F43°F41°F41°F41°F42°F41°F40°F40°F40°F40°F40°F40°F40°F40°F40°F40°F44°F42°F42°F43°F43°F44°F44°F45°F45°F45°F45°F45°F45°F45°F44°F44°F44°F44°F44°F44°F44°F43°F43°F43°F47°F45°F45°F
Pressure 29.94"29.94"29.94"29.94"29.91"29.88"29.85"29.85"29.85"29.88"29.91"29.94"29.94"29.97"29.97"29.94"29.94"29.91"29.91"29.91"29.94"29.94"29.94"29.91"29.88"29.88"29.85"29.85"29.83"29.83"29.8"29.8"29.8"29.83"29.85"29.88"29.91"29.91"29.91"29.88"29.88"29.88"29.88"29.88"29.88"29.88"29.88"29.85"
Wind Speed 4.8 mph5.5 mph6.8 mph7.6 mph8.1 mph7.9 mph10.7 mph12.4 mph11.7 mph9.7 mph5.6 mph6.6 mph5.1 mph4.4 mph4.4 mph3.2 mph2.4 mph2.5 mph2.5 mph1.7 mph1.5 mph1.2 mph1.8 mph3.9 mph4.4 mph4.8 mph5.9 mph7.6 mph9.7 mph11.4 mph12.5 mph11.5 mph9.6 mph7.6 mph5.9 mph6.8 mph6.8 mph5.8 mph4.8 mph4.2 mph3.4 mph3.3 mph3.2 mph3.4 mph4 mph1.6 mph0.4 mph2.4 mph
Wind
Direction
153°
SSE
161°
SSE
165°
SSE
171°
S
186°
S
213°
SSW
235°
SW
244°
WSW
256°
WSW
268°
W
302°
WNW
321°
NW
328°
NNW
331°
NNW
347°
NNW
10°
N
15°
NNE
12°
NNE

N
360°
N
354°
N
358°
N
204°
SSW
203°
SSW
194°
SSW
190°
S
197°
SSW
216°
SW
233°
SW
241°
WSW
245°
WSW
250°
WSW
258°
WSW
264°
W
290°
WNW
324°
NW
337°
NNW
351°
N
358°
N
357°
N
357°
N

N
359°
N

N

N
10°
N
195°
SSW
216°
SW

Daily Forecast

Date High Low Precip. Humidity
Today
Jul 20

Clear
103 °F
75 °F
0%
14%
Sunday
Jul 21

Clear
104 °F
74 °F
0%
16%
Monday
Jul 22

Clear
105 °F
77 °F
0%
15%
Tuesday
Jul 23

Rain
105 °F
78 °F
20%
15%
Wednesday
Jul 24

Clear
104 °F
76 °F
0%
16%
Thursday
Jul 25

Clear
103 °F
75 °F
0%
16%
Friday
Jul 26

Clear
100 °F
74 °F
0%
16%
Saturday
Jul 27

Clear
96 °F
67 °F
0%
10%
Sunday
Jul 28

Clear
95 °F
65 °F
0%
11%
Monday
Jul 29

Clear
96 °F
63 °F
0%
10%
Tuesday
Jul 30

Clear
99 °F
65 °F
0%
9%
Wednesday
Jul 31

Clear
102 °F
68 °F
0%
11%
Thursday
Aug 1

Clear
105 °F
73 °F
0%
16%
Friday
Aug 2

Clear
105 °F
76 °F
0%
15%
Saturday
Aug 3

Clear
106 °F
76 °F
0%
14%
Sunday
Aug 4

Clouds
101 °F
75 °F
0%
15%

Temperature 8-14 Day Outlook



Precipitation 8-14 Day Outlook






About Us
Contact Us
Site Map
Search Site
Advertise With Us
   
Isabella.USLakes.info
THE LAKE ISABELLA WEBSITE

Copyright 2024, Lakes Online
Privacy    |    Legal